#timestamp,LO_Frequency,Hit,StdDev 
1507208415.7,286047003.7,N
1507208435.6,286047002.0,N
1507208455.4,286046999.6,N
1507208475.2,286047001.0,N
1507208495.1,286047001.5,N
1507208496.0,286047001.5,N
1507208515.8,286047005.2,N
1507208535.6,286047003.2,N
1507208555.5,286047008.2,Y
1507208575.3,286047007.5,P
1507208595.1,286047005.6,N
1507208615.9,286047003.8,N
1507208635.7,286047002.3,N
1507208655.5,286046999.9,N
1507208675.4,286046996.8,N
1507208695.2,286046997.9,N
1507208715.0,286046994.7,N
1507208715.9,286046994.7,N
1507208735.8,286046996.0,N
1507208755.6,286046991.2,N
1507208775.4,286046992.3,N
1507208795.2,286046992.2,N
1507208815.1,286046999.2,N
1507208816.0,286046999.2,N
1507208835.8,286046997.6,N
1507208855.6,286046995.9,N
1507208875.5,286046995.6,N
1507208895.3,286046997.4,N
1507208915.1,286046996.7,N
1507208935.9,286046993.3,N
1507208955.7,286046994.4,N
1507208975.5,286046991.8,N
1507208995.4,286046992.1,N
1507209015.2,286046993.8,N
1507209035.0,286046995.8,N
1507209035.9,286046995.8,N
1507209055.8,286047000.9,N
1507209075.6,286046996.4,N
1507209095.4,286046990.7,N
1507209115.3,286046992.5,N
1507209135.1,286046995.5,N
1507209136.0,286046995.5,N
1507209155.8,286046997.0,N
1507209175.6,286046996.7,N
1507209195.5,286047000.2,N
1507209215.3,286046997.3,N
1507209235.1,286046994.9,N
1507209255.9,286046999.3,N
1507209275.7,286046996.0,N
1507209295.5,286046999.1,N
1507209315.4,286047000.9,N
1507209335.2,286046998.6,N
1507209355.0,286047001.1,N
1507209355.9,286047001.1,N
1507209375.8,286046991.7,N
1507209395.6,286046988.6,Y
1507209415.4,286046994.7,P
1507209435.3,286046993.3,P
1507209455.1,286046997.9,N
1507209456.0,286046997.9,N
1507209475.8,286046996.8,N
1507209495.7,286046998.0,N
1507209515.5,286046996.0,N
1507209535.3,286046996.8,N
1507209555.2,286047000.4,N
1507209575.9,286046999.8,N
1507209595.7,286047003.2,N
1507209615.5,286047003.2,N
1507209635.4,286046999.0,N
1507209655.2,286047000.2,N
1507209675.0,286046998.3,N
1507209675.9,286046998.3,N
1507209695.8,286046999.4,N
1507209715.6,286046999.1,N
1507209735.4,286046997.5,N
1507209755.3,286046999.5,N
1507209775.1,286047000.0,N
1507209776.0,286047000.0,N
1507209795.8,286047001.9,N
1507209815.7,286047000.1,N
1507209835.5,286046999.4,N
1507209855.3,286046995.0,N
1507209875.2,286047002.2,N
1507209895.9,286047000.5,N
1507209915.7,286047005.5,N
1507209935.6,286047004.1,N
1507209955.4,286047001.7,N
1507209975.2,286047003.6,N
1507209995.0,286047004.0,N
1507209995.9,286047004.0,N
1507210015.8,286047003.3,N
1507210035.6,286047002.7,N
1507210055.4,286047002.4,N
1507210075.3,286047000.4,N
1507210095.1,286047001.2,N
1507210115.8,286046997.2,N
1507210135.7,286046998.8,N
1507210155.5,286046999.1,N
1507210175.3,286046997.0,N
1507210195.2,286046999.3,N
1507210215.9,286047000.7,N
1507210235.7,286047002.5,N
1507210255.6,286047002.7,N
1507210275.4,286047010.3,Y
1507210295.2,286047010.8,P
1507210315.1,286047006.4,N
1507210316.0,286047006.4,N
1507210335.8,286047010.8,Y
1507210355.6,286047004.7,P
1507210375.5,286047005.2,P
1507210395.3,286047003.0,P
1507210415.1,286047003.6,Y
1507210435.9,286046999.2,P
1507210455.7,286046994.9,N
1507210475.5,286046994.3,N
1507210495.4,286046998.6,N
1507210515.2,286047003.2,N
1507210535.0,286047000.6,N
1507210535.9,286047000.6,N
1507210555.7,286046998.9,N
1507210575.6,286046998.1,N
1507210595.4,286046996.7,N
1507210615.2,286046994.1,N
1507210635.1,286046997.8,N
1507210636.0,286046997.8,N
1507210655.8,286046993.5,N
1507210675.6,286046994.6,N
1507210695.5,286046992.9,N
1507210715.3,286046990.3,N
1507210735.1,286046989.4,N
1507210755.9,286046987.1,Y
1507210775.7,286046992.8,P
1507210795.5,286046991.9,P
1507210815.4,286046987.2,P
1507210835.2,286046990.2,N
1507210855.0,286046994.1,N
1507210855.9,286046994.1,N
1507210875.8,286046996.3,N
1507210895.6,286046990.6,Y
1507210915.4,286046996.8,P
1507210935.3,286046997.8,N
1507210955.1,286046994.9,N
1507210956.0,286046994.9,N
1507210975.8,286046996.7,N
1507210995.7,286047004.3,N
1507211015.5,286046998.5,N
1507211035.3,286047000.7,N
1507211055.2,286047000.0,N
1507211075.9,286047004.1,N
1507211095.7,286047003.0,N
1507211115.5,286047001.5,N
1507211135.4,286047003.2,N
1507211155.2,286047003.3,N
1507211175.0,286047005.5,N
1507211175.9,286047005.5,N
1507211195.8,286047005.9,N
1507211215.6,286047003.0,N
1507211235.4,286047003.7,N
1507211255.3,286047003.6,N
1507211275.1,286047002.8,N
1507211276.0,286047002.8,N
1507211295.8,286047000.4,N
1507211315.7,286047003.5,N
1507211335.5,286046996.0,N
1507211355.3,286046997.1,N
1507211375.2,286047000.1,N
1507211395.9,286047000.0,N
1507211415.7,286047004.1,N
1507211435.5,286047002.2,N
1507211455.4,286047004.7,N
1507211475.2,286047003.7,N
1507211495.0,286047006.0,N
1507211495.9,286047006.0,N
1507211515.8,286047004.5,N
1507211535.6,286047008.4,Y
1507211555.4,286047006.3,P
1507211575.3,286047009.1,P
1507211595.1,286047007.4,N
1507211615.9,286047009.1,Y
1507211635.7,286046998.7,P
1507211655.5,286046998.6,N
1507211675.3,286046997.4,N
1507211695.2,286046996.7,N
1507211715.0,286047000.8,N
1507211715.9,286047000.8,N
1507211735.7,286046996.5,N
1507211755.6,286046997.6,N
1507211775.4,286046999.2,N
1507211795.2,286046995.7,N
1507211815.1,286047000.3,N
1507211816.0,286047000.3,N
1507211835.8,286046999.3,N
1507211855.6,286046996.7,N
1507211875.5,286047004.4,N
1507211895.3,286047006.8,N
1507211915.1,286047004.0,N
1507211935.9,286047001.6,N
1507211955.7,286047000.2,N
1507211975.5,286046998.1,N
1507211995.3,286047000.5,N
